www.pogodaiklimat.ru

Погода и климат >> Архив погоды >> Россия >> Волгоградская область >> Калач-на-Дону


ПОГОДА в Калаче-на-Дону

  • Прогноз погоды в Калаче-на-Дону
  • Монитор погоды в Калаче-на-Дону

АРХИВ ПОГОДЫ в Калаче-на-Дону

Время (UTC), дата Ветер
(напр.,м/с)
 
Видим.   Явления Облачность Т
(С)
Тd
(С)
f
(%)
Тe
(С)
Тes
(С)
Комфортность P
(гПа)
Po
(гПа)
Тmin
(С)
Tmax
(С)
R
(мм)
R24
(мм)
S
(см)
06 13.05 СЗ 2 20 км 10/10 600 м
[Sc]
+17.7 +12.7 73 +18 +18 1014.9 1010.4
09 13.05 СЗ 4 20 км 9/8 600 м
[Sc Ac trans]
+22.4 +13.8 58 +26 +27 жарко 1014.8 1010.4
12 13.05 20 км н/о +22.4 +13.8 58 +26 +27 жарко 1014.6 1010.2
15 13.05 З 3 20 км 10/10 600 м
[Sc]
+19.9 +16.0 78 +23 +23 комфорт 1014.3 1009.8 +23.4
18 13.05 СЗ 3 10 км в посл. час гроза {ливн. осадки} 10/10 600 м
[Sc]
+18.7 +14.9 79 +20 +20 1013.8 1009.4
21 13.05 СЗ 2 10 км 10/10 600 м
[Sc]
+17.4 +15.3 87 +18 +18 1013.1 1008.6
00 14.05 З 2 10 км 3/3 600 м
[Sc]
+16.3 +15.0 92 +16 +16 1011.7 1007.2
03 14.05 З 2 20 км 10/10 600 м
[Sc]
+16.3 +14.7 90 +16 +16 1011.7 1007.2 +16.0
06 14.05 З 2 20 км 9/0
[Ac trans Ci fib]
+19.6 +15.7 78 +22 +27 комфорт 1011.6 1007.1
09 14.05 З 3 20 км 8/4 600 м
[Cb cap Ac As]
+21.9 +15.1 65 +25 +30 комфорт 1011.7 1007.3
12 14.05 З 3 20 км 8/6 600 м
[Cb cap Ci]
+23.7 +14.8 57 +26 +30 жарко 1011.4 1007.0
15 14.05 З 2 20 км 8/3 600 м
[Cb cap Ci]
+22.0 +14.8 64 +25 +26 комфорт 1011.2 1006.8 +24.3
18 14.05 Ю 1 10 км 8/0
[Ci fib]
+18.1 +14.9 82 +19 +19 1012.2 1007.7
21 14.05 штиль 0 10 км 10/0
[Cs]
+16.9 +15.6 92 +17 +17 1011.8 1007.3
00 15.05 СЗ 1 10 км 10/0
[Cs]
+15.2 +14.5 96 +16 +16 1011.7 1007.2
03 15.05 СЗ 2 20 км 5/0
[Ci fib]
+15.8 +14.3 91 +16 +17 1012.5 1008.0 +14.1
06 15.05 СЗ 2 20 км 4/0
[Ci fib]
+22.4 +15.6 65 +26 +36 жарко 1013.2 1008.7
09 15.05 СЗ 3 20 км 5/5 600 м
[Cb cap]
+27.2 +14.3 45 +29 +37 жарко 1013.3 1008.9
12 15.05 СЗ 3 20 км 6/6 600 м
[Cb cap]
+28.1 +13.3 40 +30 +33 жарко 1012.9 1008.6
15 15.05 СЗ 2 20 км 8/5 600 м
[Cb cap Ci fib]
+27.3 +12.2 39 +29 +29 жарко 1013.4 1009.0 +28.6
18 15.05 СЗ 3 10 км 3/3 600 м
[Cb cap]
+22.6 +14.8 61 +26 +26 жарко 1014.5 1010.1
21 15.05 СЗ 2 10 км ясно +19.9 +14.4 71 +23 +23 комфорт 1015.0 1010.6
00 16.05 СЗ 2 10 км 3/0
[Ci fib]
+18.0 +14.2 78 +19 +19 1015.0 1010.5
03 16.05 С 2 20 км 10/0
[Cs]
+19.0 +15.4 80 +21 +22 комфорт 1015.2 1010.7 +16.9
06 16.05 С 2 20 км ясно +25.0 +15.6 56 +28 +38 жарко 1015.4 1011.0
09 16.05 СЗ 1 20 км 3/3 1000 м
[Cu med, cong Ci fib]
+29.9 +14.0 38 +32 +46 жарко 1015.0 1010.7
12 16.05 ЮЗ 2 20 км 8/8 1000 м
[Cu med, cong]
+31.2 +9.2 26 +31 +33 жарко 1014.5 1010.2
15 16.05 СЗ 1 20 км 8/8 1000 м
[Cu med, cong]
+28.4 +12.2 37 +30 +30 жарко 1014.0 1009.7 +34.6
18 16.05 СЗ 1 10 км 6/0
[Ci fib]
+23.4 +15.5 61 +28 +28 душно 1014.9 1010.5
21 16.05 СЗ 1 10 км 6/0
[Ci fib]
+20.1 +14.5 70 +23 +23 комфорт 1015.5 1011.1
00 17.05 СЗ 1 10 км 4/0
[Ci fib]
+19.0 +14.2 74 +21 +21 комфорт 1015.6 1011.1
03 17.05 С 2 20 км 8/6 1000 м
[Cu med, cong Ci fib]
+18.5 +13.8 74 +20 +20 1015.7 1011.2 +18.1
06 17.05 В 3 20 км 3/3 1000 м
[Cu hum]
+24.3 +15.1 56 +27 +33 жарко 1015.9 1011.5
09 17.05 В 5 20 км 1/1 1000 м
[Cu hum]
+26.9 +13.9 45 +29 +37 жарко 1015.7 1011.4
12 17.05 В 3 20 км 10/8 600 м
[Cb cap Cs]
+26.1 +13.9 47 +28 +30 жарко 1015.4 1011.0
15 17.05 В 4 20 км 10/1 1000 м
[Cu hum Cs]
+24.2 +12.9 49 +26 +27 жарко 1015.6 1011.2 +27.3
18 17.05 В 2 10 км 1/0
[Ci fib]
+19.6 +11.5 59 +21 +21 комфорт 1016.1 1011.7
21 17.05 В 3 10 км ясно +16.6 +5.0 46 +16 +16 1016.4 1011.9
00 18.05 СЗ 1 10 км 10/0
[Ci fib]
+12.2 +6.2 67 +12 +12 1017.2 1012.6
03 18.05 С 1 20 км 8/0
[Ci fib]
+12.1 +6.7 70 +12 +13 1017.5 1012.9 +10.4
06 18.05 В 4 20 км 6/0
[Ci fib]
+19.9 +3.6 34 +20 +27 1016.9 1012.5
09 18.05 В 4 20 км 3/0
[Ci fib]
+22.0 +2.3 27 +22 +33 комфорт 1016.2 1011.7
12 18.05 ЮВ 3 20 км 1/0
[Ci fib]
+23.5 +3.1 26 +23 +32 комфорт 1014.6 1010.2
15 18.05 В 2 20 км 1/1 1000 м
[Cu hum]
+22.7 +2.4 26 +22 +24 комфорт 1013.5 1009.1 +23.7
18 18.05 Ю 1 10 км ясно +14.1 +7.8 66 +15 +15 1013.7 1009.1
21 18.05 штиль 0 10 км ясно +10.7 +6.3 74 +10 +10 1013.8 1009.2
00 19.05 С 1 10 км ясно +8.9 +7.1 88 +8 +8 1013.2 1008.6
03 19.05 штиль 0 20 км ясно +13.7 +7.7 67 +13 +15 1013.4 1008.9 +8.6
06 19.05 С 2 20 км ясно +21.9 +5.4 34 +22 +33 комфорт 1013.5 1009.1
09 19.05 С 3 20 км ясно +24.4 +0.5 21 +23 +38 комфорт 1012.9 1008.5
12 19.05 СЗ 2 20 км ясно +25.9 +3.2 23 +25 +36 комфорт 1012.4 1008.0
15 19.05 С 3 20 км ясно +25.3 +2.5 23 +24 +26 комфорт 1012.4 1008.0 +26.2
18 19.05 СЗ 1 10 км ясно +18.2 +6.6 47 +19 +19 1014.5 1010.0
21 19.05 С 1 10 км ясно +11.8 +5.9 67 +12 +12 1014.8 1010.2
00 20.05 С 2 10 км ясно +12.4 +3.4 54 +12 +12 1016.2 1011.6
03 20.05 СВ 1 20 км ясно +12.9 +2.7 50 +13 +15 1018.7 1014.1 +10.3

 

Местоположение метеостанции Калач-на-Дону (Волгоградская область, Россия): широта 48.68 долгота 43.48 высота над уровнем моря 38 м.

В архиве по умолчанию представлена погода в Калаче-на-Дону за последнюю неделю. Архивные данные за месяц целиком и за предыдущие месяцы, начиная с января 2011 года, Вы можете получить, выбрав интересующий диапазон дат из раскрывающегося списка и нажав кнопку "Ввод!".


*Определитесь, кто Вы:
робот инопланетянин человек

Внимание! Время в таблицах - всемирное. Для получения местного времени необходимо прибавить поправку, которая равна 3 ч.

Смотрите также архив погоды в соседних городах и на ближайших метеорологических станциях:

Погода в Нижнем Чире (Волгоградская область, Россия) (47 км)
Погода в Волгограде (Волгоградская область, Россия) (66 км)
Погода в Волгограде город (Волгоградская область, Россия) (71 км)
Погода в Иловле (Волгоградская область, Россия) (79 км)
Погода в Серафимовиче (Волгоградская область, Россия) (113 км)
Погода в Котельниково (Волгоградская область, Россия) (119 км)
Погода в Малых Дербетах (Калмыкия, Россия) (123 км)
Погода в Морозовске (Ростовская область, Россия) (124 км)
Погода в Фролове (Волгоградская область, Россия) (125 км)
Погода в Боковской (Ростовская область, Россия) (135 км)

Пояснения к столбцам:

Ветер - указаны скорость ветра в м/с - средняя за 10 мин, порывы в срок и между сроками (в фигурных скобках) и направление, откуда дует ветер: С - северный, СВ - северо-восточный, В - восточный, ЮВ - юго-восточный, Ю - южный, ЮЗ - юго-западный, З - западный, СЗ - северо-западный.
Видимость - горизонтальная дальность видимости в метрах или километрах. При видимости от 1 до 10 км при отсутствии осадков обычно наблюдается дымка, при ухудшении видимости до 1 км и менее - туман. В сухую погоду видимость может ухудшаться дымом, пылью или мглою.
Явления - указаны атмосферные явления, наблюдавшиеся в срок или в последний час перед сроком; фигурными скобками обозначены явления, наблюдавшиеся между сроками (за 1-3 часа до срока); квадратными скобками обозначены град или гололедные отложения с указанием их диаметра в мм.
Облачность - указаны через наклонную черту общая и нижняя облачность в баллах и высота нижней границы облаков в метрах; квадратными скобками обозначены формы облаков: Ci - перистые, Cs - перисто-слоистые, Cc - перисто-кучевые, Ac - высококучевые, As - высокослоистые, Sc - слоисто-кучевые, Ns - слоисто-дождевые, Cu - кучевые, Cb - кучево-дождевые. Подробнее классификацию облаков см. в Атласе облаков (PDF).
T - Температура воздуха - температура, измеренная на высоте 2 м над землей.
Td - Температура точки росы - температура, при понижении до которой содержащийся в воздухе водяной пар достигнет насыщения.
f - Относительная влажность воздуха - влажноcть воздуха, измеренная на высоте 2 м над землей.
Te - Эффективная температура - температура, которую ощущает одетый по сезону человек в тени. Характеристика душности погоды. При расчете учитывается влияние влажности воздуха и скорости ветра на теплоощущения человека.
Tes - Эффективная температура на солнце - температура, которую ощущает человек, с поправкой на солнечный нагрев. Характеристика знойности погоды. Зависит от высоты солнца над горизонтом, облачности и скорости ветра. Ночью, в пасмурную погоду, а также при ветре 12 м/с и более поправка равна нулю.
P - Атмосферное давление - приведенное к уровню моря атмосферное давление.
Po - Атмосферное давление - измеренное на уровне метеостанции атмосферное давление.
Tmin - Минимальная температура - минимум температуры воздуха на высоте 2 м над землей.
Tmax - Максимальная температура - максимум температуры воздуха на высоте 2 м над землей.
R - Количество осадков - Количество выпавших осадков за период времени, мм. При наведении курсора мыши на число - период времени, за который выпало указанное количество осадков.
R24 - Количество осадков - Количество выпавших осадков за 24 часа, мм.
S - Снежный покров - Высота снежного покрова, см. При наведении курсора мыши на число - состояние снежного покрова и степень покрытия местности в баллах.